Weather History for Sungshan, Taiwan

Change the Weather History Date:

Thursday, October 11, 2012

  Actual Average Record
Temperature  
Mean Temperature 74 °F -  
Max Temperature 77 °F 78 °F 91 °F (1998)
Min Temperature 69 °F 68 °F 64 °F (2004)
Cooling Degree Days 9    
Growing Degree Days 24 (Base 50)    
Moisture  
Dew Point 61 °F    
Average Humidity 64    
Maximum Humidity 73    
Minimum Humidity 57    
Precipitation  
Precipitation 0.00 in - - ()
Sea Level Pressure  
Sea Level Pressure 29.94 in    
Wind  
Wind Speed 7 mph ()    
Max Wind Speed 10 mph    
Max Gust Speed 23 mph    
Visibility 5.6 miles    
Events Rain    
Averages and records for this station are not official NWS values.
T = Trace of Precipitation, MM = Missing Value Source: Averaged Metar Reports

Daily Weather History Graph

Daily Weather History Graph

Search for Another Location

Airport:

Trip Planner

Search our weather history database for the weather conditions in past years. The results will help you decide how hot, cold, wet, or windy it might be!

Date:

Astronomy

Oct. 11, 2012 Rise Set
Actual Time 5:50 AM CST 5:30 PM CST
Civil Twilight 5:27 AM CST 5:53 PM CST
Nautical Twilight 5:00 AM CST 6:20 PM CST
Astronomical Twilight 4:34 AM CST 6:46 PM CST
Moon 1:19 AM CST (10/11) 2:23 PM CST (10/11)
Length of Visible Light 12h 26m
Length of Day
11h 40m
Waning Crescent, 23% of the Moon is Illuminated
Oct 11
Waning Crescent
Oct 15
New
Oct 22
First Quarter
Oct 30
Full
Nov 7
Last Quarter

Hourly Weather History & Observations

Time (CST) Temp. Dew Point Humidity Pressure Visibility Wind Dir Wind Speed Gust Speed Precip Events Conditions
12:00 AM 73.4 °F 60.8 °F 65% 29.92 in 6.2 mi NNW 3.5 mph - N/A   Mostly Cloudy
1:00 AM 73.4 °F 60.8 °F 65% 29.92 in 6.2 mi Variable 3.5 mph - N/A   Mostly Cloudy
2:00 AM 73.4 °F 59.0 °F 61% 29.92 in 6.2 mi ENE 9.2 mph - N/A   Mostly Cloudy
3:00 AM 73.4 °F 60.8 °F 65% 29.89 in 6.2 mi East 5.8 mph - N/A   Mostly Cloudy
4:00 AM 73.4 °F 60.8 °F 65% 29.92 in 6.2 mi NE 6.9 mph - N/A   Mostly Cloudy
5:00 AM 73.4 °F 60.8 °F 65% 29.92 in 6.2 mi NE 5.8 mph - N/A   Mostly Cloudy
6:00 AM 75.2 °F 60.8 °F 61% 29.92 in 4.3 mi East 6.9 mph - N/A   Mostly Cloudy
6:30 AM 75.2 °F 60.8 °F 61% 29.95 in 4.3 mi ENE 8.1 mph - N/A   Mostly Cloudy
7:00 AM 75.2 °F 60.8 °F 61% 29.95 in 4.3 mi East 10.4 mph - N/A   Mostly Cloudy
7:30 AM 75.2 °F 64.4 °F 69% 29.95 in 4.3 mi ENE 8.1 mph - N/A Rain Light Rain Showers
8:00 AM 73.4 °F 64.4 °F 73% 29.95 in 4.3 mi ENE 6.9 mph - N/A Rain Light Rain Showers
8:30 AM 75.2 °F 62.6 °F 65% 29.95 in 4.3 mi ENE 10.4 mph 23.0 mph N/A   Mostly Cloudy
9:00 AM 75.2 °F 62.6 °F 65% 29.95 in 4.3 mi ENE 9.2 mph - N/A   Mostly Cloudy
9:30 AM 75.2 °F 62.6 °F 65% 29.95 in 4.3 mi NE 8.1 mph - N/A Rain Light Rain
10:00 AM 73.4 °F 64.4 °F 73% 29.95 in 5.0 mi ENE 6.9 mph - N/A Rain Light Rain
10:30 AM 73.4 °F 62.6 °F 69% 29.95 in 5.0 mi NE 8.1 mph - N/A Rain Light Rain
11:00 AM 73.4 °F 64.4 °F 73% 29.95 in 4.3 mi ENE 8.1 mph - N/A Rain Light Rain
11:30 AM 75.2 °F 62.6 °F 65% 29.95 in 4.3 mi ENE 9.2 mph - N/A Rain Light Rain
12:00 PM 75.2 °F 62.6 °F 65% 29.95 in 4.3 mi NE 6.9 mph - N/A Rain Light Rain
12:30 PM 75.2 °F 62.6 °F 65% 29.92 in 6.2 mi NE 9.2 mph - N/A   Mostly Cloudy
1:00 PM 77.0 °F 62.6 °F 61% 29.92 in 6.2 mi ENE 8.1 mph - N/A   Mostly Cloudy
1:30 PM 77.0 °F 62.6 °F 61% 29.92 in 5.0 mi NE 8.1 mph - N/A   Mostly Cloudy
2:00 PM 77.0 °F 62.6 °F 61% 29.92 in 5.0 mi NE 4.6 mph - N/A   Mostly Cloudy
2:30 PM 75.2 °F 62.6 °F 65% 29.92 in 5.6 mi NE 6.9 mph - N/A   Overcast
3:00 PM 75.2 °F 62.6 °F 65% 29.89 in 5.6 mi NE 6.9 mph - N/A   Overcast
3:30 PM 75.2 °F 60.8 °F 61% 29.92 in 6.2 mi NE 9.2 mph - N/A Rain Light Rain
4:00 PM 75.2 °F 60.8 °F 61% 29.92 in 6.2 mi ENE 8.1 mph - N/A   Mostly Cloudy
4:30 PM 75.2 °F 60.8 °F 61% 29.92 in 6.2 mi ENE 9.2 mph - N/A   Mostly Cloudy
5:00 PM 75.2 °F 60.8 °F 61% 29.92 in 6.2 mi East 9.2 mph - N/A   Mostly Cloudy
5:30 PM 73.4 °F 59.0 °F 61% 29.92 in 6.2 mi ENE 8.1 mph - N/A   Mostly Cloudy
6:00 PM 73.4 °F 59.0 °F 61% 29.92 in 6.2 mi East 9.2 mph - N/A   Mostly Cloudy
6:30 PM 73.4 °F 60.8 °F 65% 29.95 in 6.2 mi ENE 9.2 mph 21.9 mph N/A   Mostly Cloudy
7:00 PM 73.4 °F 59.0 °F 61% 29.95 in 6.2 mi ENE 9.2 mph - N/A   Mostly Cloudy
7:30 PM 73.4 °F 59.0 °F 61% 29.95 in 6.2 mi ENE 8.1 mph - N/A   Mostly Cloudy
8:00 PM 73.4 °F 59.0 °F 61% 29.98 in 6.2 mi ENE 8.1 mph - N/A   Mostly Cloudy
8:30 PM 73.4 °F 59.0 °F 61% 29.98 in 6.2 mi East 10.4 mph - N/A   Mostly Cloudy
9:00 PM 73.4 °F 57.2 °F 57% 29.98 in 6.2 mi ENE 8.1 mph - N/A   Mostly Cloudy
9:30 PM 71.6 °F 59.0 °F 64% 29.98 in 6.2 mi ENE 5.8 mph - N/A   Mostly Cloudy
10:00 PM 73.4 °F 59.0 °F 61% 29.98 in 6.2 mi ENE 6.9 mph - N/A   Mostly Cloudy
10:30 PM 71.6 °F 57.2 °F 60% 29.98 in 6.2 mi East 9.2 mph - N/A   Scattered Clouds
11:00 PM 71.6 °F 57.2 °F 60% 29.98 in 6.2 mi East 6.9 mph - N/A   Mostly Cloudy
11:30 PM 69.8 °F 59.0 °F 68% 29.98 in 6.2 mi East 5.8 mph - N/A   Mostly Cloudy